Flag for United Kingdom Weather past 2 weeks in Saint Helier, Jersey, United Kingdom

Now
66 °F

Passing clouds.


Feels Like: 66 °F
Forecast: 62 / 72 °F
Wind: 16 mph from East

Location: Jersey Airport

Current Time: Sep 15, 2014 at 11:07:20 AM

Latest Report: Sep 15, 2014 at 10:20 AM


Visibility: 6 mi

Pressure: 29.98 "Hg

Humidity: 78%

Dew point: 59 °F

Location of Saint HelierLocation

Historic Weather in Saint Helier — Graph

°F

Saint Helier temperature yesterday

Maximum temperature yesterday: 70 °F (at 12:50 PM)
Minimum temperature yesterday: 59 °F (at 5:50 AM)
Average temperature yesterday: 64 °F

Past Weeks' High & Low Weather Summary

 TemperatureHumidityPressure
High73 °F (Sep 3, 1:20 PM)100% (Sep 2, 3:50 AM)30.24 "Hg (Sep 2, 3:50 AM)
Low55 °F (Sep 11, 3:50 AM)53% (Sep 6, 4:20 PM)29.95 "Hg (Sep 6, 3:50 AM)
Average64 °F80%30.08 "Hg
* Reported Aug 31 9:20 AM — Sep 15 9:20 AM, Saint Helier, Weather by CustomWeather, © 2014

Note: Actual official high and low records may vary slightly from our data, if they occured in-between our weather recording intervals... More about our weather records

Advertising

Saint Helier weather history for previous 24 hours

 ConditionsComfort  
Time TempWeatherWind HumidityBarometerVisibility
9:20 AM
Sep 15
64 °FPassing clouds.15 mph83%29.98 "Hg6 mi
8:50 AM63 °FPassing clouds.16 mph88%29.98 "Hg5 mi
8:20 AM61 °FPassing clouds.13 mph94%29.98 "Hg5 mi
7:50 AM61 °FClear.13 mph88%29.98 "Hg5 mi
7:20 AM61 °FClear.14 mph88%29.95 "Hg5 mi
6:50 AM61 °FClear.15 mph88%29.95 "Hg4 mi
6:20 AM61 °FClear.16 mph94%29.95 "Hg4 mi
5:50 AM61 °FClear.16 mph94%29.95 "Hg4 mi
5:20 AM61 °FClear.18 mph88%29.95 "Hg5 mi
4:50 AM61 °FClear.17 mph88%29.95 "Hg10 mi
4:20 AM61 °FPassing clouds.15 mph88%29.98 "HgN/A
9:20 PM
Sep 14
61 °FClear.15 mph88%30.01 "Hg10 mi
8:50 PM61 °FClear.13 mph88%30.01 "Hg10 mi
8:20 PM61 °FPassing clouds.15 mph88%30.01 "HgN/A
7:50 PM61 °FSunny.12 mph88%30.01 "Hg10 mi
7:20 PM63 °FPassing clouds.10 mph83%30.01 "HgN/A
6:50 PM63 °FMild.15 mph83%30.01 "HgN/A
6:20 PM64 °FSunny.17 mph78%30.01 "Hg10 mi
5:50 PM66 °FSunny.22 mph73%30.01 "Hg10 mi
5:20 PM66 °FSunny.22 mph73%30.01 "Hg10 mi
4:50 PM66 °FPassing clouds.17 mph73%30.01 "HgN/A
4:20 PM68 °FPassing clouds.14 mph69%30.04 "HgN/A
3:50 PM68 °FPassing clouds.15 mph64%30.04 "HgN/A
3:20 PM68 °FPassing clouds.17 mph64%30.04 "HgN/A
2:50 PM68 °FPassing clouds.17 mph69%30.07 "HgN/A
2:20 PM68 °FPassing clouds.16 mph69%30.07 "HgN/A
1:50 PM68 °FPassing clouds.20 mph69%30.07 "HgN/A
1:20 PM68 °FPassing clouds.17 mph69%30.07 "HgN/A
12:50 PM70 °FPassing clouds.18 mph64%30.07 "HgN/A
12:20 PM66 °FPassing clouds.18 mph68%30.09 "HgN/A
11:50 AM66 °FPassing clouds.14 mph73%30.09 "HgN/A
11:20 AM68 °FPassing clouds.17 mph69%30.09 "HgN/A
Weather by CustomWeather, © 2014

See weather overviewHow to use our weather pages